Current Version              Previous Version:    01  02  03  04  05  06  07  08  09  10  11  12  13  14  15  16  17  18  19  20  21  22  23  24  25  26  27  28  29  30  
   31  32  33  34  35  36  37  38  39  40  41  42  43  44  45  46  47  48  49  50  51  52  53  54  55  56  57  58  59  60  

[Printable]
281
ASUS44 KFWD 241503
RWRTX
NORTH TEXAS HOURLY WEATHER ROUNDUP
NATIONAL WEATHER SERVICE FORT WORTH TX
1000 AM CDT FRI OCT 24 2014

NOTE: "FAIR" INDICATES FEW OR NO CLOUDS BELOW 12,000 FEET WITH NO
SIGNIFICANT WEATHER AND/OR OBSTRUCTIONS TO VISIBILITY.

TXZ118-119-241600-
DALLAS/FORT WORTH METROPLEX

CITY           SKY/WX    TMP DP  RH WIND       PRES   REMARKS
DFW AIRPORT    MOSUNNY   67  55  65 S9        30.17R
DALLAS LOVE    MOSUNNY   67  55  65 S9        30.18R
FTW MEACHAM    PTSUNNY   70  56  61 SE9       30.16R
DAL-EXECUTIVE  PTSUNNY   67  54  63 S8        30.17R
FTW-ALLIANCE   MOSUNNY   67  56  67 S6        30.16R
FTW-NAS-JRB    MOSUNNY   74  55  51 S10       30.21R
FTW-SPINKS     SUNNY     70  55  60 S12       30.18
ARLINGTON      SUNNY     67  52  58 S9        30.17R
GRAND PRAIRIE  PTSUNNY   66  55  68 MISG      30.18R
MESQUITE       SUNNY     64  54  68 S8        30.19R
LANCASTER      SUNNY     64  52  64 S6        30.20R
$$

TXZ091>094-102>105-117-120-121-131>134-241600-
NORTH CENTRAL TEXAS

CITY           SKY/WX    TMP DP  RH WIND       PRES   REMARKS
SHRMAN/DENISON SUNNY     67  59  74 S10       30.17S
GAINESVILLE    SUNNY     67  57  70 S13       30.18R
BOWIE          SUNNY     66  59  78 S7        30.15S
BRIDGEPORT     SUNNY     67  59  76 E3        30.17R
DECATUR        MOSUNNY   69  56  65 S7        30.16R
DENTON         PTSUNNY   67  56  67 S13       30.16R
MCKINNEY       SUNNY     66  55  67 S13       30.18R
GREENVILLE     PTSUNNY   66  52  59 S7        30.19S
ROCKWALL       SUNNY     65  55  71 S13G18    30.18R
TERRELL        PTSUNNY   66  53  63 S9        30.19R
WAXAHACHIE     SUNNY     66  55  67 S8        30.19S
CLEBURNE       SUNNY     66  59  77 S9G15     30.19R
GRANBURY       SUNNY     71  58  64 S5        30.18R
$$

TXZ083>090-098>101-113>116-127>130-139>142-154-155-241600-
WESTERN NORTH TEXAS

CITY           SKY/WX    TMP DP  RH WIND       PRES   REMARKS
WICHITA FALLS  MOSUNNY   69  61  75 S10       30.12R
WF-KICKAPOO    SUNNY     69  60  73 SW10      30.14R
VERNON         SUNNY     70  61  73 SW9       30.12R
ABILENE        SUNNY     68  61  78 SW6       30.17R
ABILENE-DYESS  SUNNY     71  61  72 VRB1      30.16R
BRECKENRIDGE   SUNNY     72  61  69 SW6       30.16S HAZE
MINERAL WELLS  SUNNY     67  58  72 S5        30.15R
STEPHENVILLE   SUNNY     68  60  74 S5        30.20R
COMANCHE       SUNNY     71  63  76 SW7       30.18R
COLEMAN        SUNNY     68  62  81 S5        30.19R
BRADY          SUNNY     72  57  60 S8        30.19R
$$

TXZ143>147-156>162-174-175-241600-
CENTRAL TEXAS

CITY           SKY/WX    TMP DP  RH WIND       PRES   REMARKS
WACO           SUNNY     68  55  63 S8        30.18R
WACO-TSTC      MOSUNNY   66  55  68 SE5       30.19R
WACO-MCGREGOR  MOSUNNY   66  54  63 S8        30.19S
HILLSBORO      SUNNY     69  52  55 SE10      30.18S
CORSICANA      PTSUNNY   66  49  54 S9        30.20R
MEXIA          PTSUNNY   61  56  83 SE5       30.18S
HEARNE         HAZE      64  55  71 E5        30.20S VSB 3/4
CAMERON        MOSUNNY   65  57  76 CALM      30.19S
TEMPLE         MOSUNNY   66  54  63 S10       30.18R
KILLEEN        SUNNY     69  57  66 S7        30.18R
KILLEEN-SKYLRK SUNNY     68  54  60 SE8       30.16S
FORT HOOD      SUNNY     71  56  58 SE5       30.18R
GATESVILLE     SUNNY     66  57  72 SE3       30.20R
HAMILTON       SUNNY     69  58  67 SW6       30.19R
LAMPASAS       SUNNY     68  61  78 CALM      30.18R
$$

TXZ095>097-106>112-122>126-135>138-148>153-164>167-241600-
EAST TEXAS

CITY           SKY/WX    TMP DP  RH WIND       PRES   REMARKS
PARIS          CLOUDY    61  48  63 S5        30.20R
SULPHUR SPRNGS CLOUDY    63  53  69 S8        30.21R
MOUNT PLEASANT SUNNY     60  55  84 CALM      30.21R
MINEOLA        PTSUNNY   63  54  72 CALM      30.20R
TYLER          MOSUNNY   64  53  67 S6        30.19R
LONGVIEW       SUNNY     62  52  69 VRB3      30.19R
MARSHALL       SUNNY     61  52  71 CALM      30.21S
ATHENS         SUNNY     63  52  67 S5        30.19R
PALESTINE      CLOUDY    61  55  81 CALM      30.21R
JACKSONVILLE   SUNNY     64  51  64 CALM      30.21R
HENDERSON      SUNNY     62  51  66 CALM      30.20R
NACOGDOCHES    SUNNY     61  48  63 CALM      30.20R
LUFKIN         SUNNY     64  52  64 VRB3      30.19R
$$

SUPPLEMENTAL OBSERVATIONS (CENTRAL)

CITY           SKY/WX    TMP DP  RH WIND       PRES   REMARKS
$$

SUPPLEMENTAL OBSERVATIONS (WEST)

CITY           SKY/WX    TMP DP  RH WIND       PRES   REMARKS
$$

SUPPLEMENTAL OBSERVATIONS (EAST)

CITY           SKY/WX    TMP DP  RH WIND       PRES   REMARKS
$$

SUPPLEMENTAL OBSERVATIONS ARE A COLLECTION OF AUTOMATED INSTRUMENTS
THAT ARE MAINTAINED BY A VARIETY OF FEDERAL AND STATE AGENCIES.
CERTAIN ELEMENTS...SUCH AS HUMIDITY VALUES AND SUSTAINED WIND
SPEEDS...MAY BE APPROXIMATED.